Regional Weather Roundup
Issued by NWS New Orleans/Baton Rouge, LA

Home | Current Version | Previous Version | Graphics & Text | Print | Product List | Glossary On
Versions: 1 2 3 4 5 6 7 8 9 10 11 12 13 14 15 16 17 18 19 20 21 22 23 24 25 26 27 28 29 30 31 32 33 34 35 36 37 38 39 40 41 42 43 44 45 46 47 48 49 50
050
ASUS44 KLIX 011405
RWRLIX
NEW ORLEANS REGIONAL WEATHER ROUNDUP
NATIONAL WEATHER SERVICE NEW ORLEANS LA
900 AM CDT FRI AUG 01 2014

NOTE: "FAIR" INDICATES FEW OR NO CLOUDS BELOW 12,000 FEET WITH NO
      SIGNIFICANT WEATHER AND/OR OBSTRUCTIONS TO VISIBILITY.
      SKY/WX - SKY CONDITION AND SIGNIFICANT WEATHER.
      TMP - AIR TEMPERATURE.     DP    - DEWPOINT TEMPERATURE.
      RH  - RELATIVE HUMIDITY.   PRES  - PRESSURE.
      HI  - HEAT INDEX.          WCI   - WIND CHILL INDEX.

*  THESE STATIONS ARE NOT NWS OR FAA STATIONS AND ARE NOT UNDER
   NWS QUALITY CONTROL.

LAZ038-040-048-061>063-065>067-069-011500-
SOUTHEAST LOUISIANA

CITY           SKY/WX    TMP DP  RH WIND       PRES   REMARKS
N.O. AUDUBON     N/A     85  71  63 MISG        N/A
N.O. INTL ARPT PTSUNNY   83  70  64 VRB3      30.01R
N.O. LAKEFRONT CLOUDY    80  70  71 SE7       30.01S
N.O. DOWNTOWN*   N/A     82  68  61 SE5       30.01S
SLIDELL        CLOUDY    77  67  71 E6        30.01S
BATON ROUGE    CLOUDY    76  69  79 E5        30.00R
BOOTHVILLE     CLOUDY    80  71  74 CALM      30.02S
BELLE CHASSE   CLOUDY    82  72  71 E6        30.01R
BOGALUSA*        N/A     74  68  81 NE3       30.04R
GALLIANO*      NOT AVBL
NEW ROADS*     RAIN      74  70  86 SE3       30.00R
GONZALES*        N/A     80  75  84 E3        30.00R
HAMMOND*       CLOUDY    77  66  69 CALM      30.03R
HOUMA*         PTSUNNY   79  72  78 CALM      30.01R
PORT FOURCHON* SUNNY     82  68  61 E6        30.02R

$$

MSZ070-080>082-011500-
SOUTHERN MISSISSIPPI

CITY           SKY/WX    TMP DP  RH WIND       PRES   REMARKS
MCCOMB         CLOUDY    71  67  87 E3        30.03S
GULFPORT       CLOUDY    79  66  64 NE5       30.01S
BILOXI         CLOUDY    75  67  76 NE6       30.01F
PASCAGOULA     CLOUDY    74  69  85 CALM      30.02S
STENNIS ARPT*  MOSUNNY  N/A N/A N/A CALM      30.03R

$$

COASTAL OBSERVATIONS
LAKE AND NEARSHORE STATIONS

STATION/POSITION TIME  TEMP    WIND        PRES    WAVE
                       AIR SEA DIR/SP/G            HT/PER
                 (UTC) (F)     (DEG/KT/KT) (MB)    (FT/S)
PASCAGOULA       1400   76      20/  5/  7 1015.9
WAVELAND YACHT   1400   76      50/  6/  8 1015.8
GRAND ISLE       1400   82 86  130/  3/  6 1016.6
SOUTHWEST PASS   1400   84 85   60/  4/  4 1016.7
NEW CANAL        1400   80 82   CALM  /  1 1016.6
SHELL BEACH      1400   80 81   50/  7/  8 1016.2

OFFSHORE STATIONS

STATION/POSITION TIME  TEMP    WIND        PRES    WAVE
                       AIR SEA DIR/SP/G            HT/PER
                 (UTC) (F)     (DEG/KT/KT) (MB)    (FT/S)
64 S DAUPHIN ISL 1349   82 85  330/  4/  6 1016.5

$$




USA.gov is the U.S. government's official web portal to all federal, state and local government web resources and services.